Aérodrome :
LOGIN :

S'inscrire | Disclaimer

   EN    FR    IT 

 










Légende :    VFR   VFR Marginal   IFR   IFR Intensif   IFR Très Intensif
Visi : 
Plafond : 
>= 8 km
>= 3000ft
5 à 8 km
1000 à 3000 ft
1500m à 5 km
500 à 1000 ft
800 à 1500m
200 à 500 ft
< 800m
< 200 ft
Symboles :   Orages  Brouillard  Fortes neiges  Fortes précipitations  Vent > 20 kt
SIGMETs :   Divers  Orages  Givrage  Turbulence  Onde Orograph.  Cendres Volcan.







- Altitude de l'aérodrome : 235 ft
- Code IATA : BZG


EPBY - Bydgoszcz

DERNIER METAR :
  • 232300Z VRB01KT CAVOK 12/10 Q1016

METARs EXPIRÉS :
  • 232230Z 22002KT CAVOK 12/10 Q1016
  • 232200Z VRB02KT CAVOK 12/10 Q1017
  • 232130Z 26002KT CAVOK 14/10 Q1017
  • 232030Z 33003KT CAVOK 15/10 Q1017
  • 232000Z 33004KT 300V360 9999 FEW046 15/11 Q1017

TAF TAF EPBY
Valide du 23 à 18h jusqu'au 24 à 18h UTC


231730Z 2318/2418 33005KT CAVOK
PROB40 2323/2405 4000 BR
BECMG 2408/2410 27010KT
Pas de NOTAMs connus pour ce terrain.



MET'MAP, la Météo Aéronautique d'un coup d'oeil ! - Copyright ORBIFLY Décembre 2007 - Disclaimer

ORBIFLY MET'MAP TEAM :

Programmation & Développement : Alexandra Zaïnal
Conception & Développement : Baudouin d'Aumeries
Co-Programmation & Développement : Marc-Olivier Méhu
Soutien technique & logistique : Manuel Goepfert

Contact : metmap@orbifly.com




SOURCES & CREDITS :

   NOAA